Location: Linz
(48.3300°N, 14.3000°E)
Time: 05:35:25
(UTC+01:00)

ISS - Pass Details

Date: 15 November 2017
Orbit: 401 x 407 km, 51.6° (Epoch: 18 November)

Event Time Altitude Azimuth Distance (km) Brightness Sun altitude
Exits shadow 06:28:15 - 267° (W) 1,612 -1.4 -7.2°
Reaches altitude 10° 06:28:51 10° 259° (W) 1,454 -1.5 -7.1°
Maximum altitude 06:30:45 15° 223° (SW) 1,198 -1.7 -6.8°
Drops below altitude 10° 06:32:40 10° 187° (S) 1,448 -0.8 -6.5°
Sets 06:35:22 0° 163° (SSE) 2,302 0.6 -6.1°
